This is the latest recevied weather packets stored in our database for station/object OK1PMP-6. If no packets are shown the sender has not sent any weather packets the latest 1 day(s).
| Time | Temp. | Humidity | Pressure | Rain* | Wind** | Luminosity | Snow |
|---|---|---|---|---|---|---|---|
| 1836274470 | 14.44° C | 93% | 1026 hPa | 0 mm | 0 m/s | 0 W/m² | - |
| 1836274322 | 13.89° C | 92% | 1026 hPa | 0 mm | 0 m/s | 0 W/m² | - |
| 1778031182 | 11.67° C | 93% | 1009.5 hPa | 0 mm | 0 m/s | 0 W/m² | - |
| 1778030279 | 11.67° C | 93% | 1009.4 hPa | 0 mm | 0.45 m/s, 233° | 0 W/m² | - |
| 1778029379 | 11.67° C | 93% | 1009.2 hPa | 0 mm | 0 m/s | 0 W/m² | - |
| 1778028476 | 11.67° C | 92% | 1009.1 hPa | 0.25 mm | 0 m/s | 0 W/m² | - |
| 1778027592 | 11.67° C | 93% | 1008.9 hPa | 0.25 mm | 0 m/s | 0 W/m² | - |
| 1778026674 | 12.22° C | 93% | 1009 hPa | 0.25 mm | 1.79 m/s, 325° | 0 W/m² | - |
| 1778025804 | 12.22° C | 92% | 1009.2 hPa | 0.25 mm | 0.45 m/s, 333° | 0 W/m² | - |
| 1778024874 | 12.22° C | 90% | 1009.4 hPa | 0 mm | 0 m/s | 0 W/m² | - |
| 1778023981 | 12.78° C | 88% | 1009.3 hPa | 0 mm | 0.45 m/s, 29° | 0 W/m² | - |
| 1778023071 | 12.78° C | 87% | 1009.6 hPa | 0 mm | 1.34 m/s, 32° | 0 W/m² | - |
| 1778022174 | 13.33° C | 86% | 1009.6 hPa | 0 mm | 0.45 m/s, 325° | 0 W/m² | - |
| 1778021266 | 13.33° C | 86% | 1009.5 hPa | 0 mm | 1.79 m/s, 338° | 0 W/m² | - |
| 1778020483 | 13.89° C | 84% | 1009.5 hPa | 0 mm | 1.34 m/s, 323° | 0 W/m² | - |
| 1778019465 | 15° C | 82% | 1009.2 hPa | 0 mm | 2.24 m/s, 324° | 0 W/m² | - |
| 1778018989 | 15° C | 82% | 1008.9 hPa | 0 mm | 0.89 m/s, 280° | 0 W/m² | - |
| 1778018579 | 15° C | 82% | 1008.9 hPa | 0 mm | 0.89 m/s, 280° | 0 W/m² | - |
| 1778017660 | 15° C | 85% | 1009 hPa | 0 mm | 0.89 m/s, 282° | 0 W/m² | - |
| 1778016756 | 14.44° C | 87% | 1008.7 hPa | 0 mm | 0.89 m/s, 271° | 0 W/m² | - |
| 1778015856 | 14.44° C | 86% | 1008 hPa | 0 mm | 0.89 m/s, 225° | 0 W/m² | - |
| 1778014955 | 14.44° C | 85% | 1007.4 hPa | 0 mm | 0 m/s | 0 W/m² | - |
| 1778014053 | 15° C | 86% | 1007.4 hPa | 0 mm | 0.45 m/s, 150° | 0 W/m² | - |
| 1778013148 | 15° C | 85% | 1007.3 hPa | 0 mm | 0.45 m/s, 92° | 0 W/m² | - |
| 1778012244 | 14.44° C | 85% | 1007.2 hPa | 0 mm | 0.89 m/s, 92° | 0 W/m² | - |
* Rain latest hour (hover to see other rain measurements)
** Current wind speed in m/s (hover to see current wind gust speed)